DateTimeUTC,F1_A11,F1_S11,BsB_S11,BsG_S11,BsR_S11,BbsB_S11,BbsG_S11,BbsR_S11,BaB_A11,BaG_A11,BaR_A11,Tu_S11,T_S11,Uu_S11,U_S11,P_S11,T1_A11
2021-04-04T01:00:00Z,00000200,21000000,,,,,,,0000.10,-000.11,0000.14,14.3,21.8,,00.0,0654.3,30.7
2021-04-04T01:01:00Z,00000200,21000000,,,,,,,-000.13,0000.19,0000.05,14.3,21.8,,00.0,0654.3,30.7
2021-04-04T01:02:00Z,00000200,21000000,,,,,,,-000.04,-000.41,0000.00,14.3,21.8,,00.0,0654.3,30.7
2021-04-04T01:03:00Z,00000200,61000000,,,,,,,0001.02,0001.22,0000.42,14.3,21.8,,00.0,0654.3,30.7
2021-04-04T01:04:00Z,00000200,41000000,0002.81,0002.32,0001.49,0000.27,0000.41,0000.27,0001.39,0000.93,0001.04,14.5,21.6,,00.0,0655.2,30.7
2021-04-04T01:05:00Z,00000200,01000000,0003.32,0002.24,0001.26,0000.39,0000.06,0000.49,0001.36,0001.13,0001.12,14.6,21.5,,00.0,0655.3,30.7
2021-04-04T01:06:00Z,00000200,01000000,0003.87,0002.66,0001.44,0000.33,0000.31,0000.08,0000.97,0001.61,0000.98,14.6,21.5,,00.0,0655.3,30.7
2021-04-04T01:07:00Z,00000200,01000000,0003.20,0001.89,0001.16,0000.20,0000.11,0000.18,0001.51,0001.04,0001.12,14.6,21.5,,00.0,0655.3,30.7
2021-04-04T01:08:00Z,00000200,01000000,0003.34,0002.04,0001.12,0000.90,0000.29,0000.33,0001.55,0001.20,0000.51,14.6,21.5,,00.0,0655.3,30.7
2021-04-04T01:09:00Z,00000200,01000000,0003.62,0002.05,0001.18,0000.29,0000.23,0000.02,0001.49,0001.11,0001.00,14.6,21.5,,00.0,0655.3,30.7
2021-04-04T01:10:00Z,00000200,01000000,0003.05,0002.04,0001.67,0001.06,-000.07,0000.35,0001.35,0001.08,0001.15,14.7,21.5,,00.0,0655.3,30.7
2021-04-04T01:11:00Z,00000200,01000000,0003.11,0002.32,0001.24,0000.42,0000.45,0000.40,0001.16,0001.56,0001.11,14.7,21.5,,00.0,0655.4,30.7
2021-04-04T01:12:00Z,00000200,01000000,0003.72,0001.94,0001.49,0000.56,0000.08,0000.24,0001.31,0001.22,0000.90,14.7,21.5,,00.0,0655.4,30.7
2021-04-04T01:13:00Z,00000200,01000000,0003.87,0002.15,0001.58,0000.42,0000.27,0000.40,0001.26,0001.13,0000.58,14.7,21.5,,00.0,0655.4,30.7
2021-04-04T01:14:00Z,00000200,01000000,0003.35,0002.11,0001.58,0000.56,0000.29,0000.46,0001.60,0001.25,0001.02,14.7,21.5,,00.0,0655.5,30.7
2021-04-04T01:15:00Z,00000200,01000000,0003.23,0002.40,0001.38,0000.64,-000.03,0000.57,0001.36,0001.50,0001.04,14.7,21.5,,00.0,0655.5,30.7
2021-04-04T01:16:00Z,00000200,01000000,0003.71,0002.09,0001.23,0000.87,0000.53,0000.22,0001.29,0001.41,0001.22,14.7,21.5,,00.0,0655.5,30.7
2021-04-04T01:17:00Z,00000200,01000000,0003.75,0002.12,0001.35,0000.40,0000.35,0000.16,0001.39,0001.06,0001.07,14.7,21.5,,00.0,0655.5,30.7
2021-04-04T01:18:00Z,00000200,01000000,0003.47,0002.32,0001.40,0000.65,0000.07,0000.09,0001.44,0001.17,0000.69,14.7,21.5,,00.0,0655.6,30.7
2021-04-04T01:19:00Z,00000200,01000000,0003.32,0002.43,0001.25,0001.16,0000.27,0000.30,0001.24,0001.14,0000.82,14.7,21.5,,00.0,0655.6,30.7
2021-04-04T01:20:00Z,00000200,01000000,0003.64,0002.21,0001.36,0000.61,0000.46,0000.12,0001.29,0001.17,0001.03,14.7,21.5,,00.0,0655.5,30.7
2021-04-04T01:21:00Z,00000200,01000000,0003.26,0002.07,0001.21,0000.71,0000.36,0000.33,0001.26,0001.17,0000.78,14.7,21.5,,00.0,0655.6,30.7
2021-04-04T01:22:00Z,00000200,01000000,0003.26,0002.35,0001.34,0000.99,0000.37,0000.33,0001.45,0001.27,0001.20,14.6,21.4,,00.0,0655.6,30.7
2021-04-04T01:23:00Z,00000200,01000000,0002.93,0002.22,0001.19,0000.73,0000.25,0000.24,0001.47,0001.54,0001.09,14.6,21.4,,00.0,0655.6,30.7
2021-04-04T01:24:00Z,00000200,01000000,0003.55,0002.42,0001.48,0000.47,0000.44,0000.29,0001.85,0001.32,0001.05,14.6,21.4,,00.0,0655.7,30.7
2021-04-04T01:25:00Z,00000200,01000000,0003.38,0002.36,0001.23,0000.52,0000.39,0000.20,0001.00,0001.08,0000.87,14.6,21.4,,00.0,0655.7,30.7
2021-04-04T01:26:00Z,00000200,01000000,0004.14,0002.24,0001.62,0000.24,0000.22,0000.26,0001.29,0001.39,0001.11,14.6,21.4,,00.0,0655.7,30.7
2021-04-04T01:27:00Z,00000200,01000000,0003.85,0002.68,0001.42,0000.55,0000.19,0000.44,0001.57,0001.31,0000.89,14.7,21.5,,00.0,0655.7,30.7
2021-04-04T01:28:00Z,00000200,01000000,0003.63,0002.21,0001.49,0000.58,0000.28,0000.10,0001.28,0001.13,0000.80,14.7,21.5,,00.0,0655.8,30.7
2021-04-04T01:29:00Z,00000200,01000000,0004.21,0002.18,0001.44,0000.93,0000.36,0000.33,0001.47,0001.41,0001.24,14.7,21.5,,00.0,0655.8,30.7
2021-04-04T01:30:00Z,00000200,01000000,0003.31,0002.24,0001.56,0000.36,0000.25,0000.33,0001.42,0001.25,0000.79,14.7,21.5,,00.0,0655.8,30.7
2021-04-04T01:31:00Z,00000200,01000000,0003.32,0002.34,0001.55,0000.58,0000.12,0000.33,0001.14,0001.00,0001.22,14.7,21.5,,00.0,0655.9,30.7
2021-04-04T01:32:00Z,00000200,01000000,0004.12,0002.01,0001.66,0000.12,0000.34,0000.18,0001.55,0000.98,0000.48,14.7,21.5,,00.0,0655.9,30.7
2021-04-04T01:33:00Z,00000200,01000000,0003.57,0002.37,0001.56,0000.54,0000.37,0000.29,0001.19,0001.53,0001.35,14.7,21.5,,00.0,0655.9,30.7
2021-04-04T01:34:00Z,00000200,01000000,0003.37,0002.38,0001.22,0000.23,0000.30,0000.05,0001.62,0001.37,0000.57,14.7,21.5,,00.0,0655.9,30.7
2021-04-04T01:35:00Z,00000200,01000000,0003.92,0002.42,0001.63,0000.66,0000.17,0000.49,0000.85,0000.79,0001.21,14.7,21.5,,00.0,0655.9,30.7
2021-04-04T01:36:00Z,00000200,01000000,0003.75,0002.43,0001.39,0000.28,0000.26,0000.19,0001.76,0001.56,0000.76,14.6,21.4,,00.0,0655.9,30.7
2021-04-04T01:37:00Z,00000200,01000000,0003.05,0002.01,0001.53,0000.57,0000.24,0000.24,0001.63,0001.61,0001.23,14.6,21.4,,00.0,0655.9,30.7
2021-04-04T01:38:00Z,00000200,01000000,0003.52,0002.22,0001.35,0000.70,0000.27,0000.21,0001.12,0001.22,0000.82,14.6,21.4,,00.0,0655.9,30.7
2021-04-04T01:39:00Z,00000200,01000000,0004.15,0002.30,0001.39,0001.32,0000.38,0000.20,0001.28,0001.30,0000.99,14.6,21.4,,00.0,0655.9,30.7
2021-04-04T01:40:00Z,00000200,01000000,0003.28,0002.61,0001.64,0000.54,0000.20,0000.21,0001.82,0001.57,0001.36,14.6,21.4,,00.0,0656.0,30.7
2021-04-04T01:41:00Z,00000200,01000000,0003.55,0002.29,0001.52,0000.93,0000.29,0000.36,0001.21,0001.34,0000.86,14.6,21.4,,00.0,0656.0,30.7
2021-04-04T01:42:00Z,00000200,01000000,0003.76,0002.20,0001.73,0000.50,0000.56,0000.12,0001.40,0000.90,0000.92,14.6,21.4,,00.0,0656.0,30.7
2021-04-04T01:43:00Z,00000200,01010000,0002.93,0002.18,0001.43,0000.26,0000.19,0000.37,0001.36,0001.33,0000.90,14.6,21.4,,00.0,0656.0,30.7
2021-04-04T01:44:00Z,00000200,01000000,0003.14,0002.36,0001.32,0000.33,0000.30,0000.23,0001.46,0001.17,0001.04,14.7,21.4,,00.0,0656.0,30.7
2021-04-04T01:45:00Z,00000200,01000000,0003.13,0001.99,0001.32,0000.25,0000.30,0000.35,0001.47,0001.29,0001.03,14.7,21.4,,00.0,0656.0,30.7
2021-04-04T01:46:00Z,00000200,01000000,0003.95,0001.99,0001.39,0000.75,0000.43,0000.38,0001.30,0001.19,0000.78,14.7,21.4,,00.0,0656.0,30.7
2021-04-04T01:47:00Z,00000200,01000000,0003.00,0002.36,0001.17,0000.99,0000.24,-000.01,0001.27,0001.58,0001.16,14.7,21.4,,00.0,0656.0,30.7
2021-04-04T01:48:00Z,00000200,01000000,0004.20,0002.05,0001.39,0000.61,0000.45,0000.40,0001.39,0001.41,0000.63,14.7,21.5,,00.0,0656.1,30.7
2021-04-04T01:49:00Z,00000200,01000000,0003.83,0002.47,0001.34,0000.62,0000.15,0000.13,0001.67,0001.59,0001.25,14.7,21.5,,00.0,0656.1,30.7
2021-04-04T01:50:00Z,00000200,01000000,0003.83,0002.34,0001.49,0000.71,0000.22,0000.11,0001.42,0000.75,0000.83,14.7,21.5,,00.0,0656.1,30.7
2021-04-04T01:51:00Z,00000200,01000000,0003.69,0002.52,0001.33,0000.46,0000.25,-000.07,0001.01,0000.81,0000.88,14.7,21.5,,00.0,0656.0,30.7
2021-04-04T01:52:00Z,00000200,01000000,0003.77,0002.34,0001.20,0000.33,0000.17,0000.22,0001.45,0001.28,0000.99,14.7,21.4,,00.0,0656.0,30.7
2021-04-04T01:53:00Z,00000200,01000000,0003.72,0002.09,0001.26,0000.41,0000.22,0000.31,0001.29,0001.68,0001.11,14.6,21.4,,00.0,0656.0,30.7
2021-04-04T01:54:00Z,00000200,01000000,0003.01,0002.60,0001.53,-000.27,0000.37,0000.34,0001.89,0000.98,0001.31,14.6,21.4,,00.0,0656.0,30.7
2021-04-04T01:55:00Z,00000200,01000000,0003.27,0002.58,0001.21,0000.47,0000.38,0000.38,0000.94,0001.36,0000.77,14.6,21.4,,00.0,0656.0,30.7
2021-04-04T01:56:00Z,00000200,01000000,0003.62,0002.29,0001.23,0000.93,0000.44,0000.52,0001.75,0001.41,0000.97,14.6,21.4,,00.0,0656.0,30.7
2021-04-04T01:57:00Z,00000200,41000000,,,,,,,0001.21,0001.15,0000.72,14.7,21.4,,00.0,0656.0,30.7
2021-04-04T01:58:00Z,00000200,61000000,,,,,,,-000.46,-000.18,-000.02,14.3,21.6,,00.0,0655.0,30.7
2021-04-04T01:59:00Z,00000200,21000000,,,,,,,0000.22,-000.30,-000.16,14.3,21.7,,00.0,0655.0,30.7
